DELTA 1 DEB

Satellite information

Favourite Embed

Satellite Type and Status

DEBRISIN ORBIT

Key statistics

Satellite DELTA 1 DEB at a glance.

Uptime

19502

Days in orbit

Revolutions

≈ 14.4

Per day

Orbit

SSO

Sun Synchronous Orbit

Inclination

97.6

Latest

Satellite identification and parameters

Extended collection of information and parameters for DELTA 1 DEB.

Object identification

Identified? True

Debris? True

Object name: DELTA 1 DEB

International designator: 1972-058DF

Object number (NORAD): 8004

Object ID (CCSDS): 8004

Country: UNITED STATES OF AMERICA (US)

Current information (Y/N): Y

RCS size: SMALL

Orbital parameters

Period: 99.911 minutes

Inclination: 97.5758 deg

SMA: 7132.377 km

Apoapsis: 886.725 km

Periapsis: 621.759 km

RAAN: 9.2979 deg

Eccentricy: 0.01857485

Argument of periapsis: 114.3654 deg

Mean anomaly: 247.7051 deg

Mean motion: 14.41289799 rev/day

Mean motion (dot): 0.00003428 rev/day2

B* drag term: 0.00087293253 1/REarth

Two-line elements (TLE)

Creation date: Dec. 14, 2025, 3:07 a.m.

Reference frame: TEME

Reference center: EARTH

Epoch: Dec. 13, 2025, 3:09 p.m. UTC

TLE line 0: 0 DELTA 1 DEB

TLE line 1: 1 08004U 72058DF 25347.63174599 .00003428 00000-0 87293-3 0 9998

TLE line 2: 2 08004 97.5758 9.2979 0185749 114.3654 247.7051 14.41289799748064

Live tracking on map

Real-time ground track for satellite DELTA 1 DEB.

In-orbit conjunctions

A list of the most updated potential collisions computed for object DELTA 1 DEB.

Target Orbit TCA Probability of collision Miss distance Type
GALEX LEO 2025-07-02 19:54:50 0.001455773 116.0 (m) PAYLOAD
FENGYUN 1C DEB SSO 2024-11-13 18:40:25 0.003315427 161.0 (m) DEBRIS

Associated space launch

Earth observation satellite

DELTA 1 DEB was lifted into orbit during the mission ‘Delta 0900 | Landsat 1’, on board a Delta 0900 space rocket.

The launch took place on July 23, 1972, 6:06 p.m. from Space Launch Complex 2W.

For more information about the launch, click the button.

Launch to space Delta 0900 | Landsat 1
Delta 0900 | Landsat 1

Agency: N/A

Status: Launch Successful

Launch date: July 23, 1972, 6:06 p.m. UTC

Rocket: Delta 0900

Launch pad: Space Launch Complex 2W

Location: Vandenberg SFB, CA, USA

...

Latest news about this satellite

There are no fresh news available about this satellite. Check back as we update our databases every day.


Newsletter sign-up

Weekly statistics, charts and insights to help you stay on top of the space industry.